Location: Forestville
(38.4740°N, 122.8890°W)
Time: 03:02:55
(UTC-08:00)

Amateur Radio Satellites - All Passes

Search period start: 06 March 2015 02:32
Search period end: 07 March 2015 02:32
Location: Forestville, 38.4740°N, 122.8890°W

Satellite Date Start Highest point End Downlink Frequencies (MHz)
Time Altitude Azimuth
HORYU 2 06 Mar 02:35:30 02:37:26 13° 90° (E) 02:39:37 437.375
AIST 2 06 Mar 02:37:02 02:41:12 53° 243° (WSW) 02:45:16 435.215
JAS-2 06 Mar 02:54:12 02:57:08 13° 84° (E) 03:00:44 435.910
AO-7 06 Mar 03:10:46 03:16:58 24° 92° (E) 03:23:29 29.400- 29.500
AUBIESAT-1 06 Mar 03:25:08 03:28:13 36° 68° (ENE) 03:31:28 437.475
M-CUBED/EXP-1 PRIME 06 Mar 03:26:22 03:29:33 44° 69° (ENE) 03:32:53 437.505
YUBILEINY 06 Mar 03:32:15 03:41:06 74° 266° (W) 03:49:50 435.215
STARS 06 Mar 03:50:07 03:51:50 12° 271° (W) 03:53:16 437.465
MOZHAYETS 4 06 Mar 03:51:30 03:55:53 50° 74° (ENE) 04:00:20
Gurwin Techsat 1B 06 Mar 03:55:32 03:59:54 26° 293° (WNW) 04:04:09 435.225
RS-15 06 Mar 03:59:45 04:06:17 17° 6° (N) 04:13:05 29.354- 29.394
ITAMSAT 1 06 Mar 04:01:42 04:05:08 17° 296° (WNW) 04:08:22 435.822/435.867
HORYU 2 06 Mar 04:10:08 04:14:29 53° 287° (WNW) 04:18:50 437.375
SRMSAT 06 Mar 04:16:39 04:18:54 12° 182° (S) 04:21:08 437.500
PCSat 06 Mar 04:31:22 04:36:21 36° 54° (NE) 04:41:21 145.827
JAS-2 06 Mar 04:35:42 04:43:22 76° 102° (ESE) 04:51:15 435.910
AO-7 06 Mar 05:02:15 05:10:30 69° 291° (WNW) 05:18:40 29.400- 29.500
AUBIESAT-1 06 Mar 05:02:59 05:03:27 10° 266° (W) 05:03:43 437.475
PRISM 06 Mar 05:07:58 05:11:16 24° 69° (ENE) 05:14:38 437.425
MOZHAYETS 4 06 Mar 05:30:56 05:33:29 14° 270° (W) 05:35:50
YUBILEINY 06 Mar 05:33:18 05:36:34 12° 283° (WNW) 05:39:04 435.215
CUBESAT XI-V 06 Mar 06:01:09 06:05:51 89° 242° (WSW) 06:10:36 437.345
STRAND 1 06 Mar 06:03:19 06:08:21 60° 74° (ENE) 06:13:28 437.568
RS-15 06 Mar 06:13:31 06:23:33 35° 39° (NE) 06:34:11 29.354- 29.394
PCSat 06 Mar 06:14:59 06:19:40 30° 251° (WSW) 06:24:16 145.827
Cubesat XI-IV 06 Mar 06:17:42 06:22:59 56° 100° (E) 06:28:15 437.490
JAS-2 06 Mar 06:22:01 06:27:47 23° 297° (WNW) 06:33:27 435.910
CUTE-I 06 Mar 06:25:28 06:30:48 66° 101° (ESE) 06:36:06 437.470
ISS 06 Mar 06:36:42 06:39:12 21° 132° (SE) 06:41:46 145.825
PRISM 06 Mar 06:43:10 06:46:41 26° 265° (W) 06:50:10 437.425
AIST 1 06 Mar 06:50:53 06:55:14 86° 276° (W) 06:59:40
AO-7 06 Mar 06:57:41 07:01:59 15° 309° (NW) 07:05:50 29.400- 29.500
O/OREOS (USA 219) 06 Mar 07:18:38 07:20:06 12° 99° (E) 07:21:49 437.305
STRAND 1 06 Mar 07:45:02 07:48:03 15° 270° (W) 07:50:48 437.568
GONETS M04 06 Mar 07:45:30 07:53:09 34° 71° (ENE) 08:01:00
HO-68 06 Mar 07:53:20 07:58:34 22° 92° (E) 08:04:05 435.675
Cubesat XI-IV 06 Mar 07:59:01 08:02:41 18° 296° (WNW) 08:06:10 437.490
SEEDS 06 Mar 08:03:44 08:05:40 13° 90° (E) 08:07:49 437.485
CUTE-I 06 Mar 08:07:09 08:10:24 16° 297° (WNW) 08:13:23 437.470
CANX-2 06 Mar 08:12:20 08:15:39 22° 94° (E) 08:19:04 2200.000
ISS 06 Mar 08:12:30 08:15:31 35° 328° (NNW) 08:18:32 145.825
RS-15 06 Mar 08:25:42 08:37:11 76° 243° (WSW) 08:49:09 29.354- 29.394
CUTE 1.7 + AOD 2 06 Mar 08:29:57 08:33:46 32° 96° (E) 08:37:38 437.475
GOMX 1 06 Mar 08:31:37 08:35:31 35° 96° (E) 08:39:21 467.674
DOVE 4 06 Mar 08:47:10 08:51:00 35° 97° (E) 08:54:50 437.250
BRITE-PL 06 Mar 08:47:19 08:51:45 88° 102° (ESE) 08:55:56 437.365/2234.400
TIGRISAT 06 Mar 08:53:53 08:56:00 14° 67° (ENE) 08:58:19 435.000
O/OREOS (USA 219) 06 Mar 08:54:32 08:59:02 60° 293° (WNW) 09:03:36 437.305
AAUSAT CUBESAT 2 06 Mar 08:58:24 09:02:22 40° 98° (E) 09:06:21 437.432
COMPASS 1 06 Mar 09:04:08 09:08:17 55° 100° (E) 09:12:26 437.405
ANTELSAT 06 Mar 09:08:38 09:11:49 21° 69° (ENE) 09:15:04 437.575/2403.000
UWE-3 06 Mar 09:10:18 09:12:35 15° 91° (E) 09:15:03 435.000/436.395/437.385
Oscar 11 06 Mar 09:20:50 09:24:46 34° 96° (E) 09:28:45 145.826/435.025
SO-50 06 Mar 09:22:16 09:27:07 53° 55° (NE) 09:31:56 436.795
BUGSAT 1 06 Mar 09:26:17 09:28:07 13° 66° (ENE) 09:30:10 437.445
QB50P1 06 Mar 09:35:53 09:39:10 22° 69° (ENE) 09:42:32 145.935-145.965
SEEDS 06 Mar 09:37:43 09:41:48 47° 286° (WNW) 09:45:53 437.485
HO-68 06 Mar 09:39:46 09:46:53 65° 290° (WNW) 09:53:57 435.675
QB50P2 06 Mar 09:40:57 09:44:28 26° 70° (ENE) 09:48:02 145.880/145.840
DELFI C3 06 Mar 09:41:41 09:45:38 46° 99° (E) 09:49:35 145.870
GONETS M04 06 Mar 09:41:57 09:50:20 50° 270° (W) 09:58:38
CANX-2 06 Mar 09:47:56 09:51:37 28° 289° (WNW) 09:55:14 2200.000
HUMSAT D 06 Mar 09:48:32 09:51:07 17° 92° (E) 09:53:53 437.325/437.525
DUCHIFAT 1 06 Mar 09:52:00 09:55:48 33° 72° (ENE) 09:59:39 145.980
ISS 06 Mar 09:52:02 09:52:43 10° 347° (NNW) 09:53:22 145.825
DX 1 06 Mar 09:52:16 09:56:14 33° 97° (E) 10:00:10 434.975-435.025
CUBEBUG 2 06 Mar 09:55:03 09:59:11 62° 100° (E) 10:03:20 437.445
CINEMA 3 06 Mar 10:02:04 10:06:09 56° 285° (WNW) 10:10:13 145.822/145.860
UNISAT 6 06 Mar 10:04:57 10:09:21 89° 78° (ENE) 10:13:40 437.425
CUTE 1.7 + AOD 2 06 Mar 10:06:21 10:09:31 20° 291° (WNW) 10:12:35 437.475
GOMX 1 06 Mar 10:10:35 10:13:27 17° 293° (WNW) 10:16:07 467.674
FUNcube-1 06 Mar 10:13:52 10:18:01 67° 101° (E) 10:22:12 145.935
AISAT 06 Mar 10:14:46 10:18:22 24° 95° (E) 10:22:01 437.250
POPSAT HIP 1 06 Mar 10:15:03 10:19:16 62° 75° (ENE) 10:23:31 437.405
UKube-1 06 Mar 10:16:16 10:20:34 61° 101° (E) 10:24:51 .
POLYITAN 1 06 Mar 10:16:39 10:20:53 66° 76° (ENE) 10:25:09 437.675
ZACube-1 06 Mar 10:16:40 10:20:49 74° 100° (E) 10:25:02 437.345
VELOX 1 06 Mar 10:22:06 10:25:56 29° 96° (E) 10:29:48 145.980
DOVE 4 06 Mar 10:25:49 10:28:35 17° 292° (WNW) 10:31:11 437.250
TIGRISAT 06 Mar 10:28:10 10:32:26 50° 260° (W) 10:36:38 435.000
AAUSAT CUBESAT 2 06 Mar 10:35:06 10:37:44 16° 292° (WNW) 10:40:13 437.432
50 SAT 06 Mar 10:36:20 10:40:05 41° 98° (E) 10:43:52 437.505
NANOSAT C BR1 06 Mar 10:36:30 10:40:47 74° 257° (WSW) 10:45:04 145.865
RS-15 06 Mar 10:41:33 10:48:12 16° 259° (W) 10:53:56 29.354- 29.394
COMPASS 1 06 Mar 10:41:49 10:43:35 12° 294° (WNW) 10:45:08 437.405
ANTELSAT 06 Mar 10:44:32 10:48:28 32° 263° (W) 10:52:19 437.575/2403.000
UWE-3 06 Mar 10:45:28 10:49:23 40° 287° (WNW) 10:53:17 435.000/436.395/437.385
DANDE 06 Mar 10:50:17 10:52:53 82° 85° (E) 10:55:39 436.750
ESTCUBE 1 06 Mar 10:53:13 10:57:15 31° 96° (E) 11:01:18 437.505/2401.250
CUSAT 1 06 Mar 10:55:26 10:57:58 47° 262° (W) 11:00:47 437.405
Oscar 11 06 Mar 10:57:35 11:00:46 20° 291° (WNW) 11:03:50 145.826/435.025
BUGSAT 1 06 Mar 10:59:01 11:03:13 54° 260° (W) 11:07:25 437.445
SO-50 06 Mar 11:03:56 11:07:19 18° 250° (WSW) 11:10:30 436.795
QB50P1 06 Mar 11:11:10 11:14:56 29° 264° (W) 11:18:39 145.935-145.965
QB50P2 06 Mar 11:16:46 11:20:21 25° 265° (W) 11:23:50 145.880/145.840
DELFI C3 06 Mar 11:18:23 11:20:30 13° 293° (WNW) 11:22:26 145.870
HUMSAT D 06 Mar 11:23:18 11:27:05 35° 288° (WNW) 11:30:50 437.325/437.525
DUCHIFAT 1 06 Mar 11:28:35 11:31:45 19° 267° (W) 11:34:47 145.980
DX 1 06 Mar 11:29:02 11:32:17 20° 292° (WNW) 11:35:26 434.975-435.025
HO-68 06 Mar 11:30:59 11:33:26 12° 307° (NW) 11:35:25 435.675
CUBEBUG 2 06 Mar 11:34:33 11:35:28 10° 294° (WNW) 11:36:08 437.445
CUBEBUG 1 06 Mar 11:39:32 11:43:57 86° 283° (WNW) 11:48:18 437.445
TISAT 1 06 Mar 11:44:43 11:47:56 22° 94° (E) 11:51:14 437.305
AISAT 06 Mar 11:51:10 11:54:59 28° 290° (WNW) 11:58:41 437.250
Oscar 19 06 Mar 11:51:55 11:55:43 22° 67° (ENE) 11:59:39 437.125/150
UKube-1 06 Mar 11:54:32 11:56:16 12° 295° (WNW) 11:57:47 .
POPSAT HIP 1 06 Mar 11:55:09 11:55:39 10° 271° (W) 11:55:51 437.405
SPROUT 06 Mar 11:55:23 11:59:15 33° 96° (E) 12:03:08 437.525
VELOX 1 06 Mar 11:58:49 12:02:25 24° 291° (WNW) 12:05:56 145.980
50 SAT 06 Mar 12:12:39 12:14:48 14° 292° (WNW) 12:16:46 437.505
ESTCUBE 1 06 Mar 12:30:21 12:34:01 23° 291° (WNW) 12:37:33 437.505/2401.250
ISS 06 Mar 13:05:13 13:07:47 22° 26° (NNE) 13:10:23 145.825
SWISSCUBE 06 Mar 13:18:56 13:23:27 40° 98° (E) 13:27:58 437.505
TISAT 1 06 Mar 13:20:07 13:23:46 28° 289° (WNW) 13:27:20 437.305
BEESAT 06 Mar 13:26:42 13:31:17 44° 99° (E) 13:35:52 436.000
Oscar 19 06 Mar 13:29:58 13:34:50 42° 262° (W) 13:39:42 437.125/150
SPROUT 06 Mar 13:32:01 13:35:10 20° 291° (WNW) 13:38:12 437.525
HORYU 2 06 Mar 13:34:04 13:35:08 11° 64° (ENE) 13:36:25 437.375
Gurwin Techsat 1B 06 Mar 13:34:43 13:39:50 52° 73° (ENE) 13:45:01 435.225
ITAMSAT 1 06 Mar 13:37:19 13:42:31 75° 75° (ENE) 13:47:47 435.822/435.867
ITUPSAT 1 06 Mar 13:56:40 14:01:32 89° 127° (SE) 14:06:20 437.325
STARS 06 Mar 14:04:13 14:05:39 12° 89° (E) 14:07:21 437.465
KKS-1 06 Mar 14:06:20 14:09:36 21° 93° (E) 14:12:59 437.445
AO-7 06 Mar 14:08:17 14:15:12 31° 60° (ENE) 14:22:18 29.400- 29.500
YUBILEINY 06 Mar 14:36:32 14:43:16 27° 84° (E) 14:50:21 435.215
VERMONT LUNAR 06 Mar 14:40:39 14:43:06 18° 148° (SSE) 14:45:37 437.305
ISS 06 Mar 14:41:15 14:44:23 45° 224° (SW) 14:47:29 145.825
JAS-2 06 Mar 14:48:03 14:52:32 25° 64° (ENE) 14:57:35 435.910
SWISSCUBE 06 Mar 14:57:27 15:01:05 21° 293° (WNW) 15:04:34 437.505
BEESAT 06 Mar 15:05:26 15:08:50 19° 294° (WNW) 15:12:06 436.000
HORYU 2 06 Mar 15:06:52 15:11:17 69° 259° (W) 15:15:42 437.375
PHONESAT 2.4 06 Mar 15:15:56 15:18:20 17° 147° (SSE) 15:20:48 2401.200-2431.200
Gurwin Techsat 1B 06 Mar 15:16:32 15:20:12 18° 269° (W) 15:23:40 435.225
ITAMSAT 1 06 Mar 15:20:38 15:22:42 12° 272° (W) 15:24:25 435.822/435.867
STARS 06 Mar 15:38:16 15:42:34 56° 286° (WNW) 15:46:49 437.465
BEESAT 3 06 Mar 15:41:08 15:44:55 38° 115° (ESE) 15:48:47 437.485
KKS-1 06 Mar 15:42:21 15:46:21 33° 289° (WNW) 15:50:17 437.445
MOZHAYETS 4 06 Mar 15:49:46 15:51:59 14° 89° (E) 15:54:27
AO-7 06 Mar 15:59:24 16:07:37 59° 258° (WSW) 16:15:48 29.400- 29.500
Cubesat XI-IV 06 Mar 16:03:52 16:04:14 10° 60° (ENE) 16:04:59 437.490
CUTE-I 06 Mar 16:10:01 16:11:48 12° 61° (ENE) 16:13:54 437.470
BEESAT 2 06 Mar 16:11:18 16:15:23 74° 120° (ESE) 16:19:34 435.950
VERMONT LUNAR 06 Mar 16:17:11 16:20:40 76° 162° (SSE) 16:24:09 437.305
YUBILEINY 06 Mar 16:30:56 16:39:33 61° 282° (WNW) 16:48:15 435.215
JAS-2 06 Mar 16:32:00 16:37:19 45° 264° (W) 16:43:15 435.910
AIST 2 06 Mar 16:33:34 16:37:36 45° 116° (ESE) 16:41:44 435.215
AUBIESAT-1 06 Mar 16:41:03 16:45:21 47° 104° (ESE) 16:49:53 437.475
M-CUBED/EXP-1 PRIME 06 Mar 16:42:52 16:47:13 55° 105° (ESE) 16:51:52 437.505
PHONESAT 2.4 06 Mar 16:52:48 16:56:25 69° 161° (SSE) 17:00:03 2401.200-2431.200
AIST 1 06 Mar 17:00:30 17:03:44 20° 73° (ENE) 17:07:03
BEESAT 3 06 Mar 17:20:05 17:23:11 20° 313° (NW) 17:26:14 437.485
MOZHAYETS 4 06 Mar 17:25:04 17:29:37 54° 286° (WNW) 17:34:09
O/OREOS (USA 219) 06 Mar 17:27:35 17:30:53 20° 57° (ENE) 17:34:17 437.305
Cubesat XI-IV 06 Mar 17:38:13 17:43:35 80° 76° (ENE) 17:49:00 437.490
CUTE-I 06 Mar 17:45:50 17:51:13 88° 256° (WSW) 17:56:39 437.470
BEESAT 2 06 Mar 17:52:09 17:54:08 13° 318° (NW) 17:55:58 435.950
VERMONT LUNAR 06 Mar 17:55:12 17:58:39 59° 359° (N) 18:02:06 437.305
CUBESAT XI-V 06 Mar 18:00:04 18:03:57 26° 94° (E) 18:07:51 437.345
AIST 2 06 Mar 18:13:21 18:16:28 19° 314° (NW) 18:19:31 435.215
STRAND 1 06 Mar 18:16:08 18:20:04 23° 93° (E) 18:24:07 437.568
AUBIESAT-1 06 Mar 18:16:54 18:19:56 18° 296° (WNW) 18:22:58 437.475
M-CUBED/EXP-1 PRIME 06 Mar 18:19:08 18:21:50 16° 297° (WNW) 18:24:28 437.505
BRITE-PL 06 Mar 18:21:32 18:22:56 11° 64° (ENE) 18:24:39 437.365/2234.400
HO-68 06 Mar 18:22:39 18:26:20 16° 56° (ENE) 18:30:24 435.675
PRISM 06 Mar 18:26:35 18:30:40 47° 99° (E) 18:34:45 437.425
PHONESAT 2.4 06 Mar 18:31:20 18:34:56 61° 357° (N) 18:38:33 2401.200-2431.200
YUBILEINY 06 Mar 18:37:26 18:38:48 10° 306° (NW) 18:39:22 435.215
AIST 1 06 Mar 18:37:35 18:41:30 30° 269° (W) 18:45:17
CANX-2 06 Mar 19:05:20 19:07:29 14° 67° (ENE) 19:09:50 2200.000
O/OREOS (USA 219) 06 Mar 19:06:13 19:10:31 40° 254° (WSW) 19:14:45 437.305
PCSat 06 Mar 19:11:28 19:16:32 43° 112° (ESE) 19:21:41 145.827
CUTE 1.7 + AOD 2 06 Mar 19:22:18 19:25:19 20° 69° (ENE) 19:28:27 437.475
Cubesat XI-IV 06 Mar 19:22:34 19:24:26 11° 273° (W) 19:25:55 437.490
CINEMA 3 06 Mar 19:29:14 19:29:50 10° 65° (ENE) 19:30:43 145.822/145.860
VERMONT LUNAR 06 Mar 19:33:10 19:36:40 88° 199° (SSW) 19:40:09 437.305
CUBESAT XI-V 06 Mar 19:37:17 19:41:24 30° 290° (WNW) 19:45:24 437.345
GOMX 1 06 Mar 19:37:27 19:42:20 39° 73° (ENE) 19:47:01 467.674
AAUSAT CUBESAT 2 06 Mar 19:48:38 19:51:53 23° 70° (ENE) 19:55:13 437.432
DOVE 4 06 Mar 19:50:50 19:55:25 36° 72° (ENE) 19:59:50 437.250
COMPASS 1 06 Mar 19:54:28 19:58:07 31° 72° (ENE) 20:01:49 437.405
STRAND 1 06 Mar 19:54:40 19:59:27 40° 290° (WNW) 20:04:11 437.568
BRITE-PL 06 Mar 19:55:14 20:00:52 86° 78° (ENE) 20:06:13 437.365/2234.400
PRISM 06 Mar 20:03:27 20:05:50 14° 294° (WNW) 20:08:01 437.425
HO-68 06 Mar 20:06:00 20:13:09 83° 73° (ENE) 20:20:21 435.675
UWE-3 06 Mar 20:07:41 20:09:05 12° 66° (ENE) 20:10:41 435.000/436.395/437.385
PHONESAT 2.4 06 Mar 20:09:53 20:13:32 87° 7° (N) 20:17:11 2401.200-2431.200
Oscar 11 06 Mar 20:14:48 20:18:08 23° 69° (ENE) 20:21:33 145.826/435.025
SEEDS 06 Mar 20:28:09 20:32:20 83° 258° (WSW) 20:36:33 437.485
DELFI C3 06 Mar 20:28:50 20:32:03 24° 70° (ENE) 20:35:21 145.870
CANX-2 06 Mar 20:39:03 20:43:06 45° 261° (W) 20:47:10 2200.000
RS-15 06 Mar 20:40:40 20:46:39 18° 102° (ESE) 20:53:27 29.354- 29.394
HUMSAT D 06 Mar 20:41:20 20:42:12 11° 66° (ENE) 20:43:19 437.325/437.525
GONETS M04 06 Mar 20:44:49 20:52:35 40° 88° (E) 21:00:32
DX 1 06 Mar 20:46:50 20:50:24 25° 69° (ENE) 20:54:04 434.975-435.025
CUBEBUG 2 06 Mar 20:51:55 20:56:08 44° 74° (ENE) 21:00:17 437.445
PCSat 06 Mar 20:55:35 21:00:10 26° 310° (NW) 21:04:40 145.827
CUTE 1.7 + AOD 2 06 Mar 20:57:18 21:01:05 31° 264° (W) 21:04:50 437.475
CINEMA 3 06 Mar 21:01:52 21:06:36 77° 259° (W) 21:11:08 145.822/145.860
FUNcube-1 06 Mar 21:08:21 21:12:27 43° 74° (ENE) 21:16:30 145.935
UKube-1 06 Mar 21:09:48 21:13:54 43° 72° (ENE) 21:18:03 .
ZACube-1 06 Mar 21:11:16 21:15:26 48° 74° (ENE) 21:19:33 437.345
VERMONT LUNAR 06 Mar 21:11:28 21:14:18 23° 210° (SSW) 21:17:06 437.305
AISAT 06 Mar 21:11:52 21:15:06 20° 68° (ENE) 21:18:26 437.250
GOMX 1 06 Mar 21:16:16 21:20:33 24° 266° (W) 21:24:32 467.674
VELOX 1 06 Mar 21:18:51 21:22:19 23° 69° (ENE) 21:25:54 145.980
50 SAT 06 Mar 21:22:16 21:25:14 21° 70° (ENE) 21:28:18 437.505
AAUSAT CUBESAT 2 06 Mar 21:23:58 21:27:27 25° 265° (W) 21:30:54 437.432
DOVE 4 06 Mar 21:29:10 21:33:15 23° 266° (W) 21:37:05 437.250
COMPASS 1 06 Mar 21:30:53 21:33:55 19° 267° (W) 21:36:50 437.405
BRITE-PL 06 Mar 21:38:15 21:40:00 11° 273° (W) 21:41:21 437.365/2234.400
UWE-3 06 Mar 21:40:52 21:45:14 61° 259° (W) 21:49:29 435.000/436.395/437.385
PHONESAT 2.4 06 Mar 21:48:39 21:51:46 27° 210° (SSW) 21:54:51 2401.200-2431.200
Oscar 11 06 Mar 21:50:28 21:54:12 28° 265° (W) 21:57:55 145.826/435.025
ESTCUBE 1 06 Mar 21:51:53 21:55:32 25° 69° (ENE) 21:59:18 437.505/2401.250
HO-68 06 Mar 21:57:30 22:01:49 16° 272° (W) 22:05:42 435.675
UNISAT 6 06 Mar 21:59:09 22:02:17 20° 93° (E) 22:05:35 437.425
DELFI C3 06 Mar 22:03:55 22:07:12 23° 266° (W) 22:10:27 145.870
POPSAT HIP 1 06 Mar 22:04:29 22:05:30 11° 89° (E) 22:06:48 437.405
POLYITAN 1 06 Mar 22:05:59 22:07:26 12° 90° (E) 22:09:10 437.675
HUMSAT D 06 Mar 22:13:25 22:17:34 61° 259° (W) 22:21:40 437.325/437.525
DANDE 06 Mar 22:19:15 22:22:19 15° 94° (E) 22:25:20 436.750
CUSAT 1 06 Mar 22:20:52 22:24:23 17° 95° (E) 22:27:36 437.405
TIGRISAT 06 Mar 22:21:18 22:25:14 34° 97° (E) 22:29:14 435.000
DX 1 06 Mar 22:22:51 22:26:36 27° 265° (W) 22:30:18 434.975-435.025
NANOSAT C BR1 06 Mar 22:24:04 22:27:04 19° 93° (E) 22:30:11 145.865
CUBEBUG 2 06 Mar 22:30:25 22:33:05 15° 269° (W) 22:35:32 437.445
CUBEBUG 1 06 Mar 22:34:01 22:38:25 65° 75° (ENE) 22:42:52 437.445
TISAT 1 06 Mar 22:36:44 22:39:05 15° 67° (ENE) 22:41:37 437.305
ANTELSAT 06 Mar 22:37:20 22:41:34 54° 100° (E) 22:45:54 437.575/2403.000
GONETS M04 06 Mar 22:41:20 22:49:26 41° 287° (WNW) 22:57:29
BUGSAT 1 06 Mar 22:43:36 22:46:53 23° 94° (E) 22:50:11 437.445
FUNcube-1 06 Mar 22:46:35 22:49:04 14° 269° (W) 22:51:19 145.935
RS-15 06 Mar 22:46:41 22:57:36 85° 119° (ESE) 23:08:41 29.354- 29.394
AISAT 06 Mar 22:47:20 22:51:30 36° 263° (W) 22:55:39 437.250
UKube-1 06 Mar 22:47:39 22:50:19 15° 268° (W) 22:52:50 .
SPROUT 06 Mar 22:48:42 22:52:02 23° 69° (ENE) 22:55:28 437.525
ZACube-1 06 Mar 22:49:59 22:52:08 13° 270° (W) 22:54:03 437.345
VELOX 1 06 Mar 22:54:46 22:58:46 31° 264° (W) 23:02:44 145.980
50 SAT 06 Mar 22:56:47 23:00:08 25° 265° (W) 23:03:27 437.505
QB50P1 06 Mar 22:57:23 23:01:28 48° 99° (E) 23:05:33 145.935-145.965
QB50P2 06 Mar 23:02:52 23:07:03 58° 100° (E) 23:11:12 145.880/145.840
DUCHIFAT 1 06 Mar 23:13:40 23:17:53 75° 102° (ESE) 23:22:04 145.980
ESTCUBE 1 06 Mar 23:28:23 23:32:20 29° 264° (W) 23:36:16 437.505/2401.250
UNISAT 6 06 Mar 23:35:18 23:39:11 32° 288° (WNW) 23:43:05 437.425
SO-50 06 Mar 23:36:23 23:39:55 23° 112° (ESE) 23:43:39 436.795
POPSAT HIP 1 06 Mar 23:37:42 23:41:50 55° 286° (WNW) 23:45:55 437.405
POLYITAN 1 06 Mar 23:39:40 23:43:46 51° 286° (WNW) 23:47:51 437.675
TIGRISAT 06 Mar 23:58:40 00:01:49 19° 291° (WNW) 00:04:52 435.000
NANOSAT C BR1 06 Mar 23:59:16 00:03:02 31° 289° (WNW) 00:06:43 145.865
DANDE 06 Mar 23:59:17 00:05:41 63° 279° (W) 00:10:26 436.750
CUSAT 1 07 Mar 00:01:40 00:07:15 45° 280° (W) 00:11:28 437.405
BEESAT 3 07 Mar 00:02:13 00:05:03 18° 46° (NE) 00:07:56 437.485
TISAT 1 07 Mar 00:10:27 00:14:34 45° 261° (W) 00:18:41 437.305
CUBEBUG 1 07 Mar 00:14:25 00:15:20 10° 272° (W) 00:15:55 437.445
ANTELSAT 07 Mar 00:15:55 00:18:00 13° 294° (WNW) 00:19:54 437.575/2403.000
BUGSAT 1 07 Mar 00:18:55 00:22:21 25° 290° (WNW) 00:25:39 437.445
SPROUT 07 Mar 00:24:11 00:28:01 29° 264° (W) 00:31:47 437.525
SWISSCUBE 07 Mar 00:24:12 00:28:37 39° 71° (ENE) 00:33:05 437.505
BEESAT 07 Mar 00:31:50 00:36:18 43° 72° (ENE) 00:40:51 436.000
BEESAT 2 07 Mar 00:32:37 00:36:17 29° 51° (NE) 00:39:55 435.950
QB50P1 07 Mar 00:34:47 00:37:00 14° 294° (WNW) 00:39:02 145.935-145.965
QB50P2 07 Mar 00:40:54 00:42:32 12° 295° (WNW) 00:43:56 145.880/145.840
YUBILEINY 07 Mar 00:50:23 00:52:24 11° 55° (NE) 00:55:13 435.215
AIST 2 07 Mar 00:57:13 01:00:31 22° 47° (NE) 01:03:50 435.215
ITUPSAT 1 07 Mar 01:01:57 01:06:45 87° 74° (ENE) 01:11:35 437.325
RS-15 07 Mar 01:02:05 01:11:30 31° 325° (NW) 01:20:53 29.354- 29.394
KKS-1 07 Mar 01:03:53 01:06:42 17° 67° (ENE) 01:09:40 437.445
SO-50 07 Mar 01:15:57 01:20:16 38° 308° (NW) 01:24:42 436.795
BEESAT 3 07 Mar 01:39:27 01:43:23 44° 244° (WSW) 01:47:15 437.485
Oscar 19 07 Mar 01:42:35 01:47:44 76° 102° (ESE) 01:52:53 437.125/150
ITAMSAT 1 07 Mar 01:52:11 01:56:41 30° 95° (E) 02:01:14 435.822/435.867
Gurwin Techsat 1B 07 Mar 01:53:03 01:57:11 23° 93° (E) 02:01:26 435.225
SWISSCUBE 07 Mar 02:03:04 02:06:39 20° 267° (W) 02:10:07 437.505
JUGNU 07 Mar 02:04:34 02:06:39 12° 181° (S) 02:08:44 437.505
BEESAT 2 07 Mar 02:10:58 02:14:21 24° 247° (WSW) 02:17:36 435.950
BEESAT 07 Mar 02:11:03 02:14:25 18° 268° (W) 02:17:37 436.000
SRMSAT 07 Mar 02:16:08 02:17:42 11° 173° (S) 02:19:20 437.500
